Chicopee, MA

10:23 AM EDT on April 23, 2017 (GMT -0400)
Westover Air Reserve Base / Metropolitan Airport

Weather History for KCEF - January, 2013

Change the Weather History Date:

Tuesday, January 15, 2013

  Actual Average Record
Temperature  
Mean Temperature 32 °F -  
Max Temperature 38 °F 28 °F 47 °F (2014)
Min Temperature 25 °F 14 °F -13 °F (2011)
Degree Days  
Heating Degree Days 34    
Moisture  
Dew Point 24 °F    
Average Humidity 67    
Maximum Humidity 92    
Minimum Humidity 52    
Precipitation  
Precipitation 0.00 in - - ()
Sea Level Pressure  
Sea Level Pressure 30.28 in    
Wind  
Wind Speed 3 mph (NNW)    
Max Wind Speed 8 mph    
Max Gust Speed -    
Visibility 10 miles    
Events      
Averages and records for this station are not official NWS values.
T = Trace of Precipitation, MM = Missing Value Source: NWS Daily Summary

Daily Weather History Graph

Daily Weather History Graph

Search for Another Location

Airport or City:

Trip Planner

Search our weather history database for the weather conditions in past years. The results will help you decide how hot, cold, wet, or windy it might be!

Date:

Astronomy

Jan. 15, 2013 Rise Set
Actual Time 7:16 AM EST 4:43 PM EST
Civil Twilight 6:45 AM EST 5:14 PM EST
Nautical Twilight 6:10 AM EST 5:49 PM EST
Astronomical Twilight 5:37 AM EST 6:22 PM EST
Moon 9:14 AM EST (1/15) 9:36 PM EST (1/15)
Length of Visible Light 10h 29m
Length of Day
9h 27m
Waxing Crescent, 19% of the Moon is Illuminated
Jan 15
Waxing Crescent
Jan 18
First Quarter
Jan 26
Full
Feb 3
Last Quarter
Feb 10
New

Hourly Weather History & Observations

Time (EST) Temp. Windchill Dew Point Humidity Pressure Visibility Wind Dir Wind Speed Gust Speed Precip Events Conditions
12:55 AM 36.3 °F 32.5 °F 24.1 °F 61% 30.29 in 10.0 mi NW 4.6 mph - N/A   Clear
1:55 AM 35.6 °F 29.9 °F 23.2 °F 61% 30.28 in 10.0 mi North 6.9 mph - N/A   Partly Cloudy
2:55 AM 35.8 °F 33.0 °F 23.5 °F 61% 30.25 in 10.0 mi North 3.5 mph - N/A   Overcast
3:55 AM 35.2 °F 32.4 °F 23.9 °F 63% 30.25 in 10.0 mi North 3.5 mph - N/A   Overcast
4:55 AM 33.4 °F 30.4 °F 23.9 °F 68% 30.25 in 10.0 mi North 3.5 mph - N/A   Mostly Cloudy
5:55 AM 29.8 °F 23.9 °F 23.7 °F 78% 30.26 in 10.0 mi NNW 5.8 mph - N/A   Clear
6:55 AM 29.1 °F - 23.5 °F 80% 30.30 in 10.0 mi Calm Calm - N/A   Clear
7:55 AM 25.5 °F - 23.4 °F 92% 30.32 in 10.0 mi Calm Calm - N/A   Clear
8:55 AM 33.3 °F 30.2 °F 25.3 °F 73% 30.33 in 10.0 mi Variable 3.5 mph - N/A   Clear
9:55 AM 35.8 °F 29.4 °F 23.5 °F 61% 30.35 in 10.0 mi NNW 8.1 mph - N/A   Clear
10:55 AM 36.7 °F 31.2 °F 23.4 °F 59% 30.31 in 10.0 mi North 6.9 mph - N/A   Clear
11:55 AM 37.8 °F 34.2 °F 23.0 °F 55% 30.30 in 10.0 mi NNW 4.6 mph - N/A   Clear
12:55 PM 37.9 °F 34.4 °F 22.5 °F 54% 30.29 in 10.0 mi Variable 4.6 mph - N/A   Clear
1:55 PM 38.1 °F - 21.7 °F 52% 30.27 in 10.0 mi Calm Calm - N/A   Clear
2:55 PM 38.5 °F 36.1 °F 22.5 °F 53% 30.27 in 10.0 mi North 3.5 mph - N/A   Clear
3:55 PM 38.3 °F - 21.9 °F 52% 30.27 in 10.0 mi Calm Calm - N/A   Clear
4:55 PM 37.0 °F - 22.1 °F 55% 30.28 in 10.0 mi Calm Calm - N/A   Clear
5:55 PM 34.0 °F - 23.4 °F 65% 30.27 in 10.0 mi Calm Calm - N/A   Clear
6:55 PM 33.4 °F 30.4 °F 23.2 °F 66% 30.29 in 10.0 mi NW 3.5 mph - N/A   Clear
7:55 PM 30.7 °F - 24.1 °F 76% 30.28 in 10.0 mi Calm Calm - N/A   Clear
8:55 PM 29.1 °F - 25.0 °F 85% 30.27 in 10.0 mi Calm Calm - N/A   Clear
9:55 PM 30.4 °F - 24.1 °F 77% 30.25 in 10.0 mi Calm Calm - N/A   Clear
10:55 PM 30.6 °F - 25.9 °F 83% 30.25 in 10.0 mi Calm Calm - N/A   Mostly Cloudy
11:55 PM 30.6 °F - 26.6 °F 85% 30.25 in 10.0 mi Calm Calm - N/A   Overcast